Location: C�mpuri de-Sus
(45.9500°N, 22.5500°E)
Time: 05:04:41
(UTC+00:00)

Cosmos 1153 Rocket - Pass Details

Date: 24 October 2021
Orbit: 952 x 1007 km, 82.9° (Epoch: 04 December)

Event Time Altitude Azimuth Distance (km) Brightness Sun altitude
Rises 17:15:03 0° 179° (S) 3,714 7.5 -19.2°
Reaches altitude 10° 17:17:35 10° 177° (S) 2,772 6.8 -19.6°
Maximum altitude 17:23:55 71° 94° (E) 1,063 4.4 -20.7°
Drops below altitude 10° 17:30:19 10° 12° (NNE) 2,793 6.8 -21.8°
Sets 17:32:52 0° 11° (N) 3,744 7.5 -22.3°
